Weather History for Topeka Forbes, KS

Change the Weather History Date:

Saturday, December 8, 2012

  Actual Average Record
Temperature  
Mean Temperature 38 °F -  
Max Temperature 50 °F 41 °F 61 °F (1990)
Min Temperature 26 °F 22 °F -5 °F (2005)
Degree Days  
Heating Degree Days 27    
Moisture  
Dew Point 33 °F    
Average Humidity 91    
Maximum Humidity 100    
Minimum Humidity 58    
Precipitation  
Precipitation 0.00 in - - ()
Sea Level Pressure  
Sea Level Pressure 29.95 in    
Wind  
Wind Speed 5 mph (ENE)    
Max Wind Speed 12 mph    
Max Gust Speed -    
Visibility 4 miles    
Events Fog , Rain    
Averages and records for this station are not official NWS values.
T = Trace of Precipitation, MM = Missing Value Source: NWS Daily Summary

Daily Weather History Graph

Daily Weather History Graph

Search for Another Location

Airport:

Trip Planner

Search our weather history database for the weather conditions in past years. The results will help you decide how hot, cold, wet, or windy it might be!

Date:

Astronomy

Dec. 08, 2012 Rise Set
Actual Time 7:29 AM CST 5:00 PM CST
Civil Twilight 6:59 AM CST 5:30 PM CST
Nautical Twilight 6:26 AM CST 6:03 PM CST
Astronomical Twilight 5:53 AM CST 6:35 PM CST
Moon 1:57 AM CST (12/8) 1:28 PM CST (12/8)
Length of Visible Light 10h 30m
Length of Day
9h 31m
Waning Crescent, 28% of the Moon is Illuminated
Dec 8
Waning Crescent
Dec 13
New
Dec 19
First Quarter
Dec 28
Full
Jan 4
Last Quarter

Hourly Weather History & Observations

Time (CST) Temp. Windchill Dew Point Humidity Pressure Visibility Wind Dir Wind Speed Gust Speed Precip Events Conditions
12:07 AM 42.8 °F 38.6 °F 41.0 °F 93% 29.96 in 6.0 mi NW 6.9 mph - N/A   Overcast
12:53 AM 42.1 °F 40.2 °F 41.0 °F 96% 29.95 in 5.0 mi WNW 3.5 mph - N/A   Overcast
1:53 AM 42.1 °F 37.1 °F 39.9 °F 92% 29.96 in 7.0 mi NW 8.1 mph - N/A   Overcast
2:23 AM 35.6 °F 29.2 °F 35.6 °F 100% 29.95 in 6.0 mi NW 8.1 mph - N/A   Partly Cloudy
2:53 AM 34.0 °F 28.0 °F 33.1 °F 96% 29.98 in 6.0 mi NW 6.9 mph - N/A   Clear
3:53 AM 32.0 °F - 30.9 °F 96% 29.98 in 4.0 mi North - - N/A   Clear
4:51 AM 30.2 °F 25.4 °F 30.2 °F 100% 29.95 in 2.5 mi NNW 4.6 mph - N/A   Clear
5:08 AM 28.4 °F 24.6 °F 28.4 °F 100% 29.95 in 0.8 mi NNW 3.5 mph - N/A   Clear
5:22 AM 28.4 °F 22.2 °F 28.4 °F 100% 29.95 in 1.5 mi NNW 5.8 mph - N/A   Clear
5:33 AM 28.4 °F 24.6 °F 28.4 °F 100% 29.95 in 3.0 mi NNW 3.5 mph - N/A   Clear
5:41 AM 28.4 °F 23.3 °F 28.4 °F 100% 29.96 in 2.5 mi NW 4.6 mph - N/A   Clear
5:46 AM 28.4 °F 22.2 °F 28.4 °F 100% 29.96 in 0.8 mi NW 5.8 mph - N/A   Mist
5:53 AM 28.0 °F 20.8 °F 28.0 °F 100% 29.98 in 0.2 mi NW 6.9 mph - N/A Fog Light Freezing Fog
5:59 AM 28.4 °F 21.2 °F 26.6 °F 93% 29.96 in 0.5 mi NW 6.9 mph - N/A Fog Light Freezing Fog
6:05 AM 28.4 °F 22.2 °F 26.6 °F 93% 29.96 in 2.0 mi NNW 5.8 mph - N/A   Clear
6:15 AM 28.4 °F - 28.4 °F 100% 29.96 in 3.0 mi Calm Calm - N/A   Partly Cloudy
6:26 AM 28.4 °F - 28.4 °F 100% 29.97 in 1.8 mi Calm Calm - N/A   Clear
6:35 AM 28.4 °F - 28.4 °F 100% 29.97 in 0.8 mi Calm Calm - N/A   Clear
6:39 AM 28.4 °F - 28.4 °F 100% 29.97 in 2.0 mi Calm Calm - N/A   Clear
6:53 AM 28.0 °F - 26.1 °F 92% 29.99 in 2.0 mi Calm Calm - N/A   Clear
7:01 AM 28.4 °F - 26.6 °F 93% 29.97 in 3.0 mi Calm Calm - N/A   Partly Cloudy
7:13 AM 28.4 °F - 26.6 °F 93% 29.97 in 2.0 mi Calm Calm - N/A   Mostly Cloudy
7:21 AM 28.4 °F - 26.6 °F 93% 29.98 in 1.0 mi Calm Calm - N/A   Mist
7:24 AM 28.4 °F - 26.6 °F 93% 29.98 in 0.2 mi Calm Calm - N/A Fog Light Freezing Fog
7:34 AM 28.4 °F - 26.6 °F 93% 29.97 in 0.5 mi Calm Calm - N/A Fog Light Freezing Fog
7:37 AM 28.4 °F - 26.6 °F 93% 29.98 in 2.5 mi Calm Calm - N/A   Overcast
7:44 AM 26.6 °F - 26.6 °F 100% 29.98 in 4.0 mi Calm Calm - N/A   Overcast
7:53 AM 27.0 °F - 27.0 °F 100% 30.00 in 2.5 mi Calm Calm - N/A   Overcast
8:03 AM 28.4 °F - 26.6 °F 93% 29.98 in 1.5 mi Calm Calm - N/A   Overcast
8:17 AM 30.2 °F - 28.4 °F 93% 29.99 in 2.5 mi Calm Calm - N/A   Overcast
8:28 AM 30.2 °F - 28.4 °F 93% 29.99 in 3.0 mi Calm Calm - N/A   Overcast
8:38 AM 30.2 °F 26.7 °F 30.2 °F 100% 29.99 in 2.5 mi North 3.5 mph - N/A   Overcast
8:43 AM 32.0 °F 28.7 °F 30.2 °F 93% 29.99 in 0.8 mi North 3.5 mph - N/A   Overcast
8:53 AM 33.1 °F 28.7 °F 33.1 °F 100% 30.01 in 0.2 mi NNE 4.6 mph - N/A Fog Fog
9:02 AM 33.8 °F 27.0 °F 33.8 °F 100% 29.98 in 0.5 mi NE 8.1 mph - N/A Fog Fog
9:12 AM 33.8 °F 28.6 °F 33.8 °F 100% 29.98 in 0.2 mi ENE 5.8 mph - N/A Fog Fog
9:19 AM 33.8 °F 28.6 °F 33.8 °F 100% 29.98 in 0.5 mi ENE 5.8 mph - N/A Fog Fog
9:27 AM 33.8 °F 30.8 °F 33.8 °F 100% 29.98 in 0.2 mi East 3.5 mph - N/A Fog Fog
9:53 AM 36.0 °F - 36.0 °F 100% 30.01 in 0.5 mi Calm Calm - N/A Fog Fog
10:06 AM 37.4 °F 33.8 °F 37.4 °F 100% 29.99 in 2.0 mi ENE 4.6 mph - N/A   Overcast
10:17 AM 37.4 °F 31.4 °F 37.4 °F 100% 29.99 in 4.0 mi East 8.1 mph - N/A   Overcast
10:28 AM 37.4 °F 32.1 °F 37.4 °F 100% 29.98 in 5.0 mi East 6.9 mph - N/A   Overcast
10:53 AM 39.9 °F 35.8 °F 37.0 °F 89% 30.00 in 5.0 mi ENE 5.8 mph - N/A   Overcast
11:26 AM 42.8 °F 39.3 °F 37.4 °F 81% 29.96 in 7.0 mi Variable 5.8 mph - N/A   Overcast
11:53 AM 42.1 °F 38.4 °F 37.0 °F 82% 29.96 in 8.0 mi East 5.8 mph - N/A   Overcast
12:09 PM 44.6 °F 40.2 °F 35.6 °F 71% 29.94 in 9.0 mi ESE 8.1 mph - N/A   Mostly Cloudy
12:53 PM 46.9 °F - 36.0 °F 66% 29.94 in 9.0 mi Calm Calm - N/A   Mostly Cloudy
1:26 PM 46.4 °F 43.5 °F 35.6 °F 66% 29.91 in 10.0 mi East 5.8 mph - N/A   Scattered Clouds
1:53 PM 48.0 °F - 35.1 °F 61% 29.91 in 10.0 mi ESE 6.9 mph - N/A   Scattered Clouds
2:23 PM 50.0 °F - 35.6 °F 58% 29.89 in 10.0 mi ESE 9.2 mph - N/A   Mostly Cloudy
2:30 PM 48.2 °F - 35.6 °F 62% 29.88 in 10.0 mi SE 6.9 mph - N/A   Mostly Cloudy
2:53 PM 48.0 °F - 34.0 °F 58% 29.90 in 10.0 mi ESE 8.1 mph - N/A   Overcast
3:53 PM 45.0 °F 39.3 °F 34.0 °F 65% 29.89 in 10.0 mi East 11.5 mph - N/A   Mostly Cloudy
4:53 PM 43.0 °F 38.2 °F 34.0 °F 71% 29.89 in 10.0 mi ESE 8.1 mph - N/A   Overcast
5:50 PM 42.8 °F 39.3 °F 35.6 °F 76% 29.87 in 10.0 mi East 5.8 mph - N/A   Overcast
5:53 PM 43.0 °F 40.3 °F 35.1 °F 74% 29.89 in 10.0 mi East 4.6 mph - N/A   Overcast
6:53 PM 43.0 °F 41.3 °F 35.1 °F 74% 29.91 in 10.0 mi East 3.5 mph - N/A   Overcast
7:53 PM 41.0 °F 37.1 °F 37.9 °F 89% 29.90 in 4.0 mi East 5.8 mph - 0.00 in Rain Light Rain
8:08 PM 39.2 °F 35.0 °F 37.4 °F 93% 29.87 in 3.0 mi East 5.8 mph - 0.00 in   Overcast
8:36 PM 39.2 °F 34.2 °F 39.2 °F 100% 29.87 in 4.0 mi East 6.9 mph - 0.00 in   Overcast
8:53 PM 39.9 °F 35.8 °F 39.0 °F 97% 29.88 in 4.0 mi ESE 5.8 mph - 0.00 in   Overcast
9:07 PM 39.2 °F 35.0 °F 39.2 °F 100% 29.87 in 4.0 mi ESE 5.8 mph - N/A   Overcast
9:53 PM 39.9 °F 35.8 °F 39.0 °F 97% 29.88 in 4.0 mi East 5.8 mph - N/A   Overcast
10:53 PM 39.9 °F 37.8 °F 39.0 °F 97% 29.89 in 4.0 mi East 3.5 mph - N/A   Overcast
11:53 PM 39.9 °F 37.8 °F 39.0 °F 97% 29.88 in 4.0 mi East 3.5 mph - N/A   Overcast